{"data":{"norad_id":66373,"epoch":"2026-05-24T17:55:47.960832Z","epoch_age_seconds":97682,"freshness":"FRESH","line1":"1 66373U 25254AB  26144.74708288  .00022626  00000+0  77382-3 0  9991","line2":"2 66373  53.1578 236.7691 0000814  78.9591 281.1501 15.30195747 30656","mean_motion":15.30195747,"eccentricity":8.14e-5,"inclination_deg":53.1578,"raan_deg":236.7691,"arg_perigee_deg":78.9591,"mean_anomaly_deg":281.1501,"bstar":0.00077382,"rev_number":3065,"period_min":94.105607261239,"perigee_km":474.669904248,"apogee_km":475.78563203226,"semimajor_km":6853.3647681401,"source":"CELESTRAK","updated_at":"2026-05-25T13:38:21.199171Z"}}